Lid_Strength_Index
6 6 6 6 6 6 6 5 5 7 8 9 9 9 8 7 6 5 4 3 0 1 1 3 4 5 5 5 5 5 5 6 6 6 5 6 6 5
7 7 7 8 9 10 8 7 7 7 9 10 10 11 10 8 6 8 6 5 3 3 4 5 6 6 6 6 5 6 6 6 6 6 6 6 6 5
8 9 9 9 9 9 9 9 9 9 10 12 12 11 11 10 9 9 8 8 8 6 6 6 6 6 6 7 7 7 8 7 7 7 7 6 6 6
10 10 10 10 10 10 10 11 10 11 12 13 12 12 12 11 10 10 9 9 10 9 8 7 7 8 8 8 8 8 8 8 8 7 7 7 7 7
11 12 11 11 12 12 12 12 12 12 12 12 13 12 13 12 12 11 11 11 10 10 9 9 9 8 8 8 9 9 9 8 8 8 8 8 8 7
11 11 11 12 13 14 14 14 13 14 14 14 13 13 13 12 12 13 13 13 13 13 12 11 11 10 10 9 9 8 8 8 8 7 7 7 6 6
13 12 12 10 10 11 13 14 15 15 16 17 16 16 15 15 16 16 16 16 16 16 15 15 15 15 14 11 10 9 9 8 8 7 6 6 6 6
17 17 16 14 13 10 10 10 12 15 16 20 20 17 18 18 17 17 19 20 20 16 17 16 15 15 15 14 11 9 8 8 7 7 7 7 7 7
20 19 16 14 15 15 13 12 12 11 12 16 17 18 18 17 20 20 18 20 19 17 16 17 16 16 15 13 10 9 8 8 7 7 7 7 7 6
18 18 17 16 15 15 16 16 16 16 15 15 16 16 16 16 16 18 18 17 16 16 16 20 17 16 15 14 11 9 8 8 8 8 7 7 6 6
17 17 16 16 12 13 16 17 17 17 13 12 12 12 12 11 13 16 18 20 19 17 16 17 17 17 16 15 14 9 9 9 9 8 7 6 6 6
18 17 13 14 13 13 17 18 18 18 17 17 17 16 15 14 12 15 18 24 23 21 17 17 18 17 20 17 16 14 13 10 9 8 6 6 6 8
17 18 17 14 14 14 14 17 17 16 16 18 18 17 17 16 16 16 17 22 19 17 14 13 15 14 15 18 16 15 15 13 13 11 8 7 6 7
18 18 17 14 14 14 15 14 13 15 18 18 18 19 19 19 18 16 14 14 13 15 13 13 15 15 15 16 16 16 16 14 15 16 15 10 8 7
17 16 14 14 15 16 15 13 15 18 18 20 20 20 20 20 20 16 13 13 14 13 13 13 13 14 14 15 14 13 13 14 12 14 16 15 14 13
15 18 16 16 15 16 17 17 17 18 19 20 20 19 18 15 15 14 15 15 15 16 16 15 14 13 14 14 14 15 13 14 16 12 11 10 12 11
16 19 20 20 19 19 18 18 18 18 19 19 19 18 15 14 15 14 15 15 16 20 21 18 16 15 16 16 15 15 14 13 11 11 13 12 11 11
18 19 21 21 20 19 19 19 18 17 18 18 18 15 15 15 15 15 15 16 16 18 20 21 22 20 19 15 12 14 14 14 12 11 12 12 12 11
19 21 21 21 20 20 21 21 22 19 21 21 18 15 15 15 15 15 17 17 17 19 18 20 25 21 22 20 15 10 14 16 15 13 13 13 13 12
20 21 21 20 20 21 21 22 22 21 22 20 20 17 15 15 16 17 20 19 18 18 18 20 24 20 19 19 18 13 10 13 13 14 13 12 12 9
19 20 20 20 21 21 21 22 23 23 23 22 21 20 19 16 16 16 19 15 15 16 17 17 16 13 16 16 18 15 12 9 10 12 14 12 12 11
19 20 20 20 20 22 22 23 25 24 24 23 22 21 20 20 17 16 16 17 17 18 18 16 16 18 19 16 16 16 14 11 9 8 8 9 11 13
20 20 20 21 21 22 23 23 24 23 24 23 22 22 21 18 17 16 16 16 17 17 17 17 16 17 15 15 13 14 13 12 11 11 10 8 8 7